Probability
3 3 1 0 0 0 0 0 0 0 0 0 0 0 0 0 0 0 0 0 0 0 0 0 0 0 0 0 0 0 0 0 0 0 0 0 0 0 0 0 0 0 0
2 2 1 0 0 0 0 0 0 0 0 0 0 0 0 0 0 0 0 0 0 0 0 0 0 0 0 0 0 0 0 0 0 0 0 0 0 0 0 0 0 0 0
1 1 1 0 0 0 0 0 0 0 0 0 0 0 0 0 0 0 0 0 0 0 0 0 0 0 0 0 0 0 0 0 0 0 0 0 0 0 0 0 0 0 0
0 0 0 0 0 0 0 0 0 0 0 0 0 0 0 0 0 0 0 0 0 0 0 0 0 0 0 0 0 0 0 0 0 0 0 0 0 0 0 0 0 0 0
0 0 0 0 0 0 0 0 0 0 0 0 0 0 0 0 0 0 0 0 0 0 0 0 0 0 0 0 0 0 0 0 0 0 0 0 0 0 0 0 0 0 0
0 0 0 0 0 0 0 0 0 0 0 0 0 0 0 0 0 0 0 0 0 0 0 0 0 0 0 0 0 0 0 0 0 0 0 0 0 0 0 0 0 0 0
0 0 0 0 0 0 0 0 0 0 0 0 0 0 0 0 0 0 0 0 0 0 0 0 0 0 0 0 0 0 0 0 0 0 0 0 0 0 0 0 0 0 0
0 0 0 0 0 0 0 0 0 0 0 0 0 0 0 0 0 0 0 0 0 0 0 0 0 0 0 0 0 0 0 0 0 0 0 0 0 0 0 0 0 0 0
0 0 0 0 0 0 0 0 0 0 0 0 0 0 0 0 0 0 0 0 0 0 0 0 0 0 0 0 0 0 0 0 0 0 0 0 0 0 0 0 0 0 0
0 0 0 0 0 0 0 0 0 0 0 0 0 0 0 0 0 0 0 0 0 0 0 0 0 0 0 0 0 0 0 0 0 0 0 0 0 0 0 0 0 0 0
0 0 0 0 0 0 0 0 0 0 0 0 0 0 0 0 0 0 0 0 0 0 0 0 0 0 0 0 0 0 0 0 0 0 0 0 0 0 0 0 0 0 0
0 0 0 0 0 0 0 0 0 0 0 0 0 0 0 0 0 0 0 0 0 0 0 0 0 0 0 0 0 0 0 0 0 0 0 0 0 0 0 0 0 0 0
0 0 0 0 0 0 0 0 0 0 0 0 0 0 0 0 0 0 0 0 0 0 0 0 0 0 0 0 0 0 0 0 0 0 0 0 0 0 0 0 0 0 0
0 0 0 0 0 0 0 0 0 0 0 0 0 0 0 0 0 0 0 0 0 0 0 0 0 0 0 0 0 0 0 0 0 0 0 0 0 0 0 0 0 0 0
0 0 0 0 0 0 0 0 0 0 0 0 0 0 0 0 0 0 0 0 0 0 0 0 0 0 0 0 0 0 0 0 0 0 0 0 0 0 0 0 0 0 0
0 0 0 0 0 0 0 0 0 0 0 0 0 0 0 0 0 0 0 0 0 0 0 0 0 0 0 0 0 0 0 0 0 0 0 0 0 0 0 0 0 0 0
0 0 0 0 0 0 0 0 0 0 0 0 0 0 0 0 0 0 0 0 0 0 0 0 0 0 0 0 0 0 0 0 0 0 0 0 0 0 0 0 0 0 0
0 0 0 0 0 0 0 0 0 0 0 0 0 0 0 0 0 0 0 0 0 0 0 0 0 0 0 0 0 0 0 0 0 0 0 0 0 0 0 0 0 0 0
0 0 0 0 0 0 0 0 0 0 0 0 0 0 0 0 0 0 0 0 0 0 0 0 0 0 0 0 0 0 0 0 0 0 0 0 0 0 0 0 0 0 0
0 0 0 0 0 0 0 0 0 0 0 0 0 0 0 0 0 0 0 0 0 0 0 0 0 0 0 0 0 0 0 0 0 0 0 0 0 0 0 0 0 0 0
0 0 0 0 0 0 0 0 0 0 0 0 0 0 0 0 0 0 0 0 0 0 0 0 0 0 0 0 0 0 0 0 0 0 0 0 0 0 0 0 0 0 0
0 0 0 0 0 0 0 0 0 0 0 0 0 0 0 0 0 0 0 0 0 0 0 0 0 0 0 0 0 0 0 0 0 0 0 0 0 0 0 0 0 0 0
0 0 0 0 0 0 0 0 0 0 0 0 0 0 0 0 0 0 0 0 0 0 0 0 0 0 0 0 0 0 0 0 0 0 0 0 0 0 0 0 0 0 0
0 0 0 0 0 0 0 0 0 0 0 0 0 0 0 0 0 0 0 0 0 0 0 0 0 0 0 0 0 0 0 0 0 0 0 0 0 0 0 0 0 0 0
0 0 0 0 0 0 0 0 0 0 0 0 0 0 0 0 0 0 0 0 0 0 0 0 0 0 0 0 0 0 0 0 0 0 0 0 0 0 0 0 0 0 0
0 0 0 0 0 0 0 0 0 0 0 0 0 0 0 0 0 0 0 0 0 0 0 0 0 0 0 0 0 0 0 0 0 0 0 0 0 0 0 0 0 0 0
Wind_Speed
7 7 7 7 8 8 7 7 7 6 7 8 8 8 8 8 7 7 6 7 7 6 5 6 6 5 4 3 3 2 2 2 2 1 2 2 3 2 1 1 1 1 2
5 5 6 6 6 7 7 6 6 6 7 7 7 7 7 7 7 8 8 7 8 7 7 6 6 5 5 4 3 3 2 2 3 2 1 2 2 2 1 1 1 1 2
5 5 5 5 6 6 6 5 5 6 6 6 7 7 7 7 7 6 7 6 6 6 7 7 6 7 5 4 4 4 3 3 3 3 2 1 1 1 1 1 2 2 3
4 5 5 5 5 5 4 5 5 5 6 6 6 6 6 6 6 6 6 6 5 5 5 6 6 7 7 7 5 4 4 4 3 3 2 1 1 1 1 1 2 2 3
5 5 5 4 4 5 4 4 4 4 5 5 5 5 5 4 5 7 6 7 7 6 5 5 5 5 6 6 5 5 5 4 3 3 2 1 1 1 1 0 2 3 3
5 5 4 5 5 5 5 5 5 5 5 5 5 5 5 3 7 9 8 7 7 7 6 5 5 6 6 8 8 7 7 5 4 3 2 2 2 1 1 0 1 2 3
5 4 5 5 5 4 5 5 5 4 5 5 5 5 5 6 10 10 10 7 7 7 7 7 5 5 6 6 7 7 5 4 5 4 3 3 2 2 2 1 1 2 3
5 5 5 5 5 5 5 5 4 4 4 4 5 5 5 6 10 11 11 7 6 5 6 7 7 6 6 7 6 5 3 2 2 2 2 2 2 2 2 2 1 2 4
5 5 5 6 6 5 5 5 4 4 4 4 4 5 6 6 10 11 11 6 6 5 5 5 6 6 9 10 7 6 4 2 3 4 4 3 2 2 2 2 1 0 2
5 5 5 5 6 6 5 5 4 4 5 5 5 4 5 5 9 11 11 6 6 5 4 4 5 6 10 10 6 6 5 3 3 3 3 2 2 1 2 2 2 1 1
5 5 5 5 5 6 5 5 5 5 6 5 5 4 4 5 8 10 9 5 6 5 4 3 4 8 9 9 6 4 5 5 4 3 2 1 1 1 1 1 1 1 2
6 6 5 5 5 5 6 6 5 6 6 5 5 5 3 3 4 6 8 7 7 5 4 4 4 9 8 8 5 6 7 5 3 3 2 2 2 1 1 1 1 1 2
6 6 6 6 5 5 6 6 5 4 4 4 4 4 3 2 4 6 7 7 7 4 3 6 7 8 7 5 6 6 5 4 3 3 3 3 2 1 1 0 0 1 2
6 6 5 5 5 5 4 4 4 4 4 4 4 4 4 3 3 3 3 4 5 5 4 5 6 6 5 4 4 3 2 3 3 3 2 2 1 1 1 1 1 1 1
6 5 5 5 5 5 4 3 3 2 3 4 4 4 5 4 5 7 5 4 4 5 5 3 3 3 3 3 2 2 2 3 3 2 2 2 2 2 2 1 1 1 2
6 5 4 4 4 4 4 4 6 5 5 5 4 4 2 3 6 8 7 7 8 9 5 4 4 4 4 4 4 4 4 4 3 3 3 3 3 3 2 2 2 2 3
5 5 4 4 4 4 3 4 3 4 5 5 4 4 3 4 5 6 7 7 8 8 4 4 4 4 4 4 4 5 4 4 4 4 4 4 3 3 3 3 3 3 3
6 5 4 3 3 3 3 3 3 3 2 2 2 2 2 3 4 5 6 6 5 5 3 3 4 4 3 4 4 4 4 3 4 4 4 4 4 3 3 4 4 4 4
5 4 4 4 3 3 3 3 2 2 2 2 1 1 1 2 3 3 4 3 3 3 3 3 3 3 3 3 3 3 3 3 4 4 4 4 4 4 4 4 4 5 4
4 5 4 4 3 3 3 3 2 2 2 1 1 1 1 1 2 2 2 2 2 3 3 3 3 3 3 3 3 3 3 3 4 4 4 4 4 4 5 5 5 4 4
4 4 5 4 3 3 2 2 2 2 1 1 1 1 2 2 2 2 2 2 3 3 3 3 3 3 3 3 3 4 5 4 4 4 4 4 4 4 4 4 4 4 4
3 3 3 3 3 2 2 1 1 1 1 1 0 1 1 0 1 1 2 2 3 3 2 3 3 3 4 4 4 4 5 5 4 4 4 4 4 4 4 4 4 4 4
3 3 3 3 2 2 2 1 1 1 1 1 1 1 1 1 1 2 2 2 2 2 2 2 3 3 3 3 4 5 5 6 5 5 5 4 4 4 4 5 5 4 4
3 3 3 2 2 1 1 1 0 0 1 1 1 1 2 2 2 2 2 2 2 2 2 2 2 3 4 3 3 3 4 4 4 4 6 5 5 4 4 4 5 5 5
3 3 2 2 1 1 1 0 0 1 1 1 1 2 2 2 2 2 2 2 2 2 3 3 2 3 5 5 5 4 6 6 5 4 5 5 5 5 5 5 4 4 4
2 2 1 1 1 0 0 1 1 1 1 2 2 2 2 2 2 2 2 2 2 3 3 3 4 4 5 4 6 7 7 7 7 7 5 5 6 5 5 5 6 5 5
Wind_Direction
194 192 191 194 195 197 201 200 191 185 182 184 184 184 185 184 178 178 182 178 181 181 175 177 177 165 162 159 149 153 158 147 164 128 102 115 122 121 81 39 343 324 326
185 184 187 185 184 189 196 193 186 185 179 177 177 180 180 178 176 177 179 179 181 179 175 170 170 157 153 147 147 153 146 131 139 152 118 109 122 133 103 351 321 323 312
170 174 177 179 181 184 185 180 176 174 170 167 170 176 175 173 171 173 172 172 173 171 167 165 161 151 150 144 140 139 130 108 105 131 137 112 109 105 58 327 308 316 314
162 166 170 174 173 170 162 160 163 163 162 161 161 161 161 159 158 156 153 153 149 148 149 151 151 156 159 151 144 141 129 115 110 121 133 143 141 114 88 316 313 315 307
158 164 165 148 139 137 136 138 135 137 143 143 142 141 140 147 155 152 150 147 143 134 123 121 127 131 139 141 145 146 141 137 135 136 150 153 160 152 204 274 299 314 300
159 159 144 133 129 130 130 128 128 129 127 129 139 142 142 145 151 151 147 141 142 141 135 124 116 118 124 124 128 136 146 151 157 157 169 181 191 185 170 237 314 333 303
147 138 132 131 130 128 126 126 131 130 125 128 132 133 135 144 147 144 142 139 141 145 144 141 131 130 130 128 124 120 118 128 150 158 169 188 184 176 162 205 250 258 264
137 137 136 136 133 129 127 129 124 118 124 126 127 130 128 137 142 138 131 123 124 130 140 146 144 145 146 140 132 126 115 113 123 118 140 142 137 140 159 186 229 281 285
145 149 147 142 138 137 136 133 125 123 120 117 120 129 129 133 140 138 132 121 121 122 124 130 140 146 154 151 144 144 139 125 108 116 117 120 129 137 134 115 100 0 294
151 146 141 140 143 144 138 127 118 120 120 117 112 115 126 132 143 143 137 128 129 127 121 126 141 152 160 162 157 157 164 163 138 119 110 107 106 121 139 141 157 175 246
127 124 124 127 131 131 124 119 121 120 118 116 113 106 112 126 144 148 146 136 142 142 146 151 160 164 167 170 166 164 171 151 145 145 146 151 141 137 131 124 141 182 208
116 117 116 115 116 120 122 121 122 126 124 122 118 111 104 114 133 147 152 150 147 149 157 157 162 166 169 171 166 164 162 146 139 150 172 194 196 198 198 204 233 258 255
116 118 116 114 113 119 125 129 128 130 131 133 133 132 130 126 139 146 150 152 151 141 147 156 160 166 165 161 160 164 153 151 159 178 200 208 197 184 159 154 311 316 300
117 115 115 117 116 113 115 125 134 142 143 145 146 146 145 145 149 148 146 142 139 131 131 141 150 160 156 143 148 164 164 171 179 193 198 191 160 157 175 182 220 295 304
112 109 110 109 114 108 100 104 120 121 149 155 158 157 161 172 184 174 161 161 161 157 138 129 141 154 165 167 170 174 177 177 189 197 192 195 196 196 212 204 200 202 232
112 108 106 107 105 106 107 88 78 92 96 107 121 137 151 162 167 178 181 179 173 161 146 166 177 182 188 189 192 198 200 201 201 199 201 207 210 211 221 223 220 221 244
108 107 103 102 105 110 112 115 105 80 82 90 103 121 133 148 165 179 183 180 177 172 176 185 191 195 198 197 199 202 207 202 192 198 206 210 210 212 218 226 228 235 245
94 94 97 99 100 103 106 108 117 122 112 83 81 111 125 147 161 172 175 166 179 185 194 195 201 202 202 203 205 208 205 198 199 204 206 208 206 208 216 223 225 229 237
89 90 91 95 95 98 99 100 102 110 119 115 90 90 101 142 147 162 163 175 190 198 202 205 205 202 203 204 206 206 205 207 208 205 207 208 206 207 218 222 224 228 225
81 84 88 96 98 97 97 102 107 113 119 130 146 162 136 140 164 183 190 193 205 212 212 215 216 213 209 207 206 206 212 216 214 214 214 211 209 210 219 221 220 220 223
84 84 85 90 93 97 102 107 114 125 137 150 184 218 187 175 194 204 207 212 219 222 220 220 222 220 217 213 210 213 217 222 220 219 216 213 209 212 216 218 220 219 221
84 86 85 87 86 86 89 96 110 125 140 162 207 256 245 223 227 229 231 233 235 233 225 221 224 222 216 213 212 214 219 224 223 221 218 214 212 214 212 212 213 216 216
87 90 87 84 86 90 88 93 110 129 154 200 221 235 249 247 245 246 248 251 252 250 244 235 234 233 228 223 215 212 217 222 219 214 214 213 211 211 210 212 211 212 217
82 87 90 91 91 99 111 119 129 158 191 218 232 239 245 250 256 261 263 262 262 257 248 244 243 246 242 234 223 221 224 225 213 209 207 209 210 211 210 213 212 213 216
76 84 89 97 107 117 127 154 221 236 239 244 246 250 254 257 258 259 263 269 266 260 260 254 243 239 237 235 231 230 237 240 225 203 197 201 207 207 207 210 209 206 209
77 86 95 107 123 145 192 233 248 252 252 255 256 255 256 256 256 255 254 253 257 258 256 252 248 250 252 246 240 242 240 238 224 210 194 193 200 205 201 204 204 204 205